| time (UTC) | temp F | wind direction | speed MPH | gust MPH | rain 1hr in | rain 24hr in | rain mn in | humidity % | barometer mb |
| 20260507114308 | 38 | 256 | 3.0 | 5.0 | 0.00 | 0.00 | 0.00 | 96 | 1016.9 |
| 20260507113806 | 38 | 246 | 2.0 | 3.0 | 0.00 | 0.00 | 0.00 | 96 | 1016.9 |
| 20260507113302 | 38 | 267 | 1.0 | 2.0 | 0.00 | 0.00 | 0.00 | 96 | 1016.9 |
| 20260507112800 | 37 | 271 | 2.0 | 3.0 | 0.00 | 0.00 | 0.00 | 96 | 1016.8 |
| 20260507112257 | 37 | 195 | 1.0 | 2.0 | 0.00 | 0.00 | 0.00 | 96 | 1016.8 |
| 20260507111755 | 37 | 187 | 1.0 | 2.0 | 0.00 | 0.00 | 0.00 | 96 | 1016.7 |
| 20260507111251 | 37 | 189 | 2.0 | 3.0 | 0.00 | 0.00 | 0.00 | 96 | 1016.8 |
| 20260507110747 | 37 | 187 | 1.0 | 2.0 | 0.00 | 0.00 | 0.00 | 96 | 1017.1 |
| 20260507110244 | 37 | 189 | 1.0 | 1.0 | 0.00 | 0.00 | 0.00 | 96 | 1017.1 |
| 20260507105741 | 38 | 208 | 1.0 | 2.0 | 0.00 | 0.00 | 0.00 | 96 | 1017.3 |
| 20260507105236 | 38 | 208 | 1.0 | 2.0 | 0.00 | 0.00 | 0.00 | 96 | 1017.3 |
| 20260507104734 | 38 | 211 | 2.0 | 2.0 | 0.00 | 0.00 | 0.00 | 96 | 1017.3 |
| 20260507104231 | 38 | 239 | 2.0 | 3.0 | 0.00 | 0.00 | 0.00 | 96 | 1017.4 |
| 20260507103727 | 38 | 180 | 1.0 | 1.0 | 0.00 | 0.00 | 0.00 | 96 | 1017.3 |
| 20260507103223 | 38 | 183 | 1.0 | 2.0 | 0.00 | 0.00 | 0.00 | 96 | 1017.5 |
| 20260507102719 | 38 | 187 | 1.0 | 3.0 | 0.00 | 0.00 | 0.00 | 96 | 1017.4 |
| 20260507102216 | 38 | 181 | 1.0 | 1.0 | 0.00 | 0.00 | 0.00 | 96 | 1017.5 |
| 20260507101712 | 38 | 184 | 2.0 | 2.0 | 0.00 | 0.00 | 0.00 | 96 | 1017.5 |
| 20260507101207 | 38 | 179 | 1.0 | 2.0 | 0.00 | 0.00 | 0.00 | 96 | 1017.8 |
| 20260507100705 | 38 | 179 | 1.0 | 1.0 | 0.00 | 0.00 | 0.00 | 95 | 1017.5 |
| 20260507100203 | 38 | 180 | 1.0 | 2.0 | 0.00 | 0.00 | 0.00 | 95 | 1017.7 |
| 20260507095701 | 38 | 181 | 1.0 | 1.0 | 0.00 | 0.00 | 0.00 | 95 | 1017.6 |
| 20260507095157 | 38 | 181 | 1.0 | 1.0 | 0.00 | 0.00 | 0.00 | 95 | 1017.6 |
| 20260507094654 | 38 | 183 | 1.0 | 1.0 | 0.00 | 0.00 | 0.00 | 95 | 1017.7 |
| 20260507094150 | 38 | 185 | 0.0 | 1.0 | 0.00 | 0.00 | 0.00 | 95 | 1017.8 |
| 20260507093648 | 38 | 188 | 1.0 | 1.0 | 0.00 | 0.00 | 0.00 | 95 | 1017.6 |
| 20260507093147 | 39 | 196 | 1.0 | 2.0 | 0.00 | 0.00 | 0.00 | 95 | 1017.7 |
| 20260507092643 | 39 | 205 | 1.0 | 2.0 | 0.00 | 0.00 | 0.00 | 95 | 1017.9 |
| 20260507092139 | 39 | 239 | 2.0 | 3.0 | 0.00 | 0.00 | 0.00 | 95 | 1017.8 |
| 20260507091636 | 39 | 217 | 2.0 | 3.0 | 0.00 | 0.00 | 0.00 | 95 | 1017.6 |
| 20260507091132 | 39 | 225 | 2.0 | 2.0 | 0.00 | 0.00 | 0.00 | 95 | 1017.8 |
| 20260507090628 | 39 | 180 | 1.0 | 2.0 | 0.00 | 0.00 | 0.00 | 95 | 1017.8 |
| 20260507090126 | 39 | 179 | 1.0 | 2.0 | 0.00 | 0.00 | 0.00 | 95 | 1017.8 |
| 20260507085622 | 39 | 180 | 0.0 | 1.0 | 0.00 | 0.00 | 0.00 | 95 | 1017.9 |
| 20260507085119 | 39 | 181 | 1.0 | 1.0 | 0.00 | 0.00 | 0.00 | 95 | 1018.0 |
| 20260507084616 | 39 | 182 | 1.0 | 2.0 | 0.00 | 0.00 | 0.00 | 94 | 1018.2 |
| 20260507084113 | 39 | 182 | 0.0 | 1.0 | 0.00 | 0.00 | 0.00 | 94 | 1018.0 |
| 20260507083609 | 39 | 183 | 0.0 | 2.0 | 0.00 | 0.00 | 0.00 | 94 | 1018.2 |
| 20260507083107 | 40 | 184 | 1.0 | 2.0 | 0.00 | 0.00 | 0.00 | 94 | 1018.1 |
| 20260507082602 | 40 | 185 | 2.0 | 2.0 | 0.00 | 0.00 | 0.00 | 94 | 1018.3 |
| 20260507082059 | 40 | 186 | 1.0 | 2.0 | 0.00 | 0.00 | 0.00 | 94 | 1018.1 |
| 20260507081555 | 40 | 186 | 1.0 | 1.0 | 0.00 | 0.00 | 0.00 | 93 | 1018.6 |
| 20260507081052 | 40 | 189 | 1.0 | 2.0 | 0.00 | 0.00 | 0.00 | 93 | 1018.5 |
| 20260507080548 | 41 | 195 | 1.0 | 1.0 | 0.00 | 0.00 | 0.00 | 93 | 1018.5 |
| 20260507080045 | 41 | 200 | 2.0 | 3.0 | 0.00 | 0.00 | 0.00 | 93 | 1018.9 |
| 20260507075540 | 41 | 209 | 0.0 | 3.0 | 0.00 | 0.00 | 0.00 | 93 | 1018.9 |
| 20260507075036 | 41 | 220 | 2.0 | 3.0 | 0.00 | 0.00 | 0.00 | 93 | 1018.6 |
| 20260507074533 | 41 | 212 | 3.0 | 3.0 | 0.00 | 0.00 | 0.00 | 92 | 1018.7 |
| 20260507074032 | 41 | 231 | 2.0 | 3.0 | 0.00 | 0.00 | 0.00 | 92 | 1019.1 |
| 20260507073527 | 41 | 220 | 2.0 | 2.0 | 0.00 | 0.00 | 0.00 | 92 | 1019.1 |
| 20260507073024 | 42 | 205 | 1.0 | 3.0 | 0.00 | 0.00 | 0.00 | 91 | 1018.9 |
| 20260507072522 | 42 | 211 | 0.0 | 3.0 | 0.00 | 0.00 | 0.00 | 91 | 1019.0 |
| 20260507072019 | 42 | 239 | 3.0 | 5.0 | 0.00 | 0.00 | 0.00 | 91 | 1019.1 |
| 20260507071516 | 42 | 217 | 3.0 | 3.0 | 0.00 | 0.00 | 0.00 | 90 | 1019.1 |
| 20260507071012 | 42 | 239 | 4.0 | 6.0 | 0.00 | 0.00 | 0.00 | 90 | 1019.1 |
| 20260507070510 | 43 | 237 | 3.0 | 5.0 | 0.00 | 0.00 | 0.00 | 90 | 1019.2 |
| 20260507070010 | 43 | 253 | 2.0 | 3.0 | 0.00 | 0.00 | 0.00 | 90 | 1019.1 |
| 20260507065503 | 43 | 283 | 4.0 | 6.0 | 0.00 | 0.00 | 0.00 | 89 | 1019.3 |
| 20260507065000 | 43 | 253 | 2.0 | 7.0 | 0.00 | 0.00 | 0.00 | 89 | 1019.3 |
| 20260507064458 | 43 | 273 | 5.0 | 7.0 | 0.00 | 0.00 | 0.00 | 89 | 1019.1 |
| 20260507063956 | 44 | 252 | 3.0 | 8.0 | 0.00 | 0.00 | 0.00 | 89 | 1019.2 |
| 20260507063453 | 44 | 270 | 3.0 | 7.0 | 0.00 | 0.00 | 0.00 | 88 | 1019.2 |
| 20260507062950 | 44 | 258 | 3.0 | 6.0 | 0.00 | 0.00 | 0.00 | 88 | 1019.4 |
| 20260507062447 | 44 | 270 | 2.0 | 7.0 | 0.00 | 0.00 | 0.00 | 88 | 1019.4 |
| 20260507061944 | 44 | 277 | 3.0 | 6.0 | 0.00 | 0.00 | 0.00 | 89 | 1019.5 |
| 20260507061442 | 44 | 284 | 4.0 | 5.0 | 0.00 | 0.00 | 0.00 | 89 | 1019.5 |
| 20260507060940 | 44 | 252 | 3.0 | 6.0 | 0.00 | 0.00 | 0.00 | 89 | 1019.4 |
| 20260507060437 | 44 | 272 | 3.0 | 6.0 | 0.00 | 0.00 | 0.00 | 89 | 1019.4 |
| 20260507055933 | 44 | 278 | 2.0 | 3.0 | 0.00 | 0.00 | 0.00 | 89 | 1019.6 |
| 20260507055429 | 44 | 271 | 2.0 | 6.0 | 0.00 | 0.00 | 0.00 | 89 | 1019.7 |
| 20260507054926 | 44 | 241 | 3.0 | 7.0 | 0.00 | 0.00 | 0.00 | 89 | 1019.8 |
| 20260507054422 | 45 | 241 | 5.0 | 7.0 | 0.00 | 0.00 | 0.00 | 89 | 1019.8 |
| 20260507053919 | 45 | 261 | 4.0 | 6.0 | 0.00 | 0.00 | 0.00 | 88 | 1019.9 |
| 20260507053417 | 45 | 265 | 7.0 | 8.0 | 0.00 | 0.00 | 0.00 | 88 | 1020.1 |
| 20260507052915 | 45 | 263 | 4.0 | 6.0 | 0.00 | 0.00 | 0.00 | 88 | 1019.9 |
| 20260507052412 | 45 | 286 | 4.0 | 8.0 | 0.00 | 0.00 | 0.00 | 88 | 1020.0 |
| 20260507051909 | 45 | 278 | 5.0 | 7.0 | 0.00 | 0.00 | 0.00 | 88 | 1020.1 |
| 20260507051407 | 45 | 258 | 5.0 | 8.0 | 0.00 | 0.00 | 0.00 | 87 | 1019.9 |
| 20260507050904 | 46 | 280 | 4.0 | 7.0 | 0.00 | 0.00 | 0.00 | 87 | 1019.8 |
| 20260507050400 | 46 | 279 | 5.0 | 8.0 | 0.00 | 0.00 | 0.00 | 86 | 1019.9 |
| 20260507045857 | 46 | 275 | 4.0 | 6.0 | 0.00 | 0.22 | 0.22 | 86 | 1019.8 |
| 20260507045353 | 46 | 279 | 3.0 | 7.0 | 0.00 | 0.22 | 0.22 | 86 | 1019.6 |
| 20260507044851 | 46 | 243 | 3.0 | 6.0 | 0.00 | 0.22 | 0.22 | 85 | 1019.6 |
| 20260507044347 | 46 | 260 | 4.0 | 7.0 | 0.00 | 0.22 | 0.22 | 85 | 1019.7 |
| 20260507043843 | 47 | 287 | 4.0 | 6.0 | 0.00 | 0.22 | 0.22 | 84 | 1019.5 |
| 20260507043340 | 47 | 287 | 3.0 | 8.0 | 0.00 | 0.22 | 0.22 | 84 | 1019.6 |
| 20260507042836 | 47 | 244 | 3.0 | 7.0 | 0.00 | 0.22 | 0.22 | 83 | 1019.7 |
| 20260507042332 | 47 | 277 | 3.0 | 6.0 | 0.00 | 0.22 | 0.22 | 82 | 1019.5 |
| 20260507041829 | 48 | 265 | 4.0 | 6.0 | 0.00 | 0.22 | 0.22 | 81 | 1019.8 |
| 20260507041325 | 48 | 299 | 3.0 | 6.0 | 0.00 | 0.22 | 0.22 | 80 | 1019.8 |
| 20260507040823 | 48 | 275 | 5.0 | 7.0 | 0.00 | 0.22 | 0.22 | 79 | 1020.0 |
| 20260507040319 | 49 | 265 | 3.0 | 5.0 | 0.00 | 0.22 | 0.22 | 78 | 1019.7 |
| 20260507035815 | 49 | 285 | 4.0 | 6.0 | 0.00 | 0.22 | 0.22 | 78 | 1019.7 |
| 20260507035310 | 49 | 285 | 3.0 | 3.0 | 0.00 | 0.22 | 0.22 | 77 | 1019.6 |
| 20260507034809 | 49 | 299 | 3.0 | 5.0 | 0.00 | 0.22 | 0.22 | 77 | 1019.5 |
| 20260507034305 | 49 | 299 | 2.0 | 6.0 | 0.00 | 0.22 | 0.22 | 76 | 1019.5 |
| 20260507033803 | 49 | 295 | 2.0 | 2.0 | 0.00 | 0.22 | 0.22 | 76 | 1019.6 |
| 20260507033301 | 50 | 269 | 2.0 | 2.0 | 0.00 | 0.22 | 0.22 | 75 | 1019.2 |
| 20260507032757 | 50 | 278 | 2.0 | 3.0 | 0.00 | 0.22 | 0.22 | 75 | 1019.3 |
| 20260507032253 | 50 | 252 | 1.0 | 3.0 | 0.00 | 0.22 | 0.22 | 74 | 1019.3 |
| 20260507031750 | 50 | 257 | 2.0 | 3.0 | 0.00 | 0.22 | 0.22 | 74 | 1019.3 |
| 20260507031247 | 50 | 217 | 1.0 | 3.0 | 0.00 | 0.22 | 0.22 | 74 | 1019.4 |
| 20260507030744 | 50 | 214 | 2.0 | 2.0 | 0.00 | 0.22 | 0.22 | 74 | 1019.3 |
| 20260507030241 | 50 | 216 | 1.0 | 2.0 | 0.00 | 0.22 | 0.22 | 74 | 1019.1 |
| 20260507025738 | 50 | 222 | 1.0 | 2.0 | 0.00 | 0.22 | 0.22 | 73 | 1019.2 |
| 20260507025235 | 50 | 226 | 1.0 | 2.0 | 0.00 | 0.22 | 0.22 | 73 | 1019.4 |
| 20260507024734 | 51 | 230 | 2.0 | 3.0 | 0.00 | 0.22 | 0.22 | 73 | 1019.3 |
| 20260507024231 | 51 | 230 | 1.0 | 2.0 | 0.00 | 0.22 | 0.22 | 73 | 1019.3 |
| 20260507023726 | 51 | 257 | 2.0 | 2.0 | 0.00 | 0.22 | 0.22 | 72 | 1019.1 |
| 20260507023223 | 51 | 258 | 2.0 | 2.0 | 0.00 | 0.22 | 0.22 | 72 | 1019.2 |
| 20260507022720 | 51 | 252 | 2.0 | 3.0 | 0.00 | 0.22 | 0.22 | 72 | 1019.4 |
| 20260507022216 | 51 | 239 | 2.0 | 2.0 | 0.00 | 0.22 | 0.22 | 72 | 1019.0 |
| 20260507021712 | 51 | 299 | 1.0 | 3.0 | 0.00 | 0.22 | 0.22 | 71 | 1019.1 |
| 20260507021208 | 51 | 308 | 2.0 | 3.0 | 0.00 | 0.22 | 0.22 | 71 | 1019.1 |
| 20260507020707 | 51 | 288 | 2.0 | 3.0 | 0.00 | 0.22 | 0.22 | 71 | 1019.0 |
| 20260507020202 | 51 | 243 | 1.0 | 2.0 | 0.00 | 0.22 | 0.22 | 71 | 1018.9 |
| 20260507015700 | 51 | 277 | 1.0 | 2.0 | 0.00 | 0.22 | 0.22 | 70 | 1018.9 |
| 20260507015158 | 51 | 297 | 2.0 | 2.0 | 0.00 | 0.22 | 0.22 | 70 | 1018.7 |
| 20260507014654 | 52 | 267 | 1.0 | 2.0 | 0.00 | 0.22 | 0.22 | 69 | 1018.6 |
| 20260507014150 | 52 | 305 | 3.0 | 3.0 | 0.00 | 0.22 | 0.22 | 68 | 1018.6 |
| 20260507013647 | 52 | 305 | 3.0 | 3.0 | 0.00 | 0.22 | 0.22 | 68 | 1018.3 |
| 20260507013144 | 52 | 287 | 2.0 | 2.0 | 0.00 | 0.22 | 0.22 | 68 | 1018.7 |
| 20260507012642 | 52 | 308 | 3.0 | 3.0 | 0.00 | 0.22 | 0.22 | 68 | 1018.4 |
| 20260507012137 | 52 | 223 | 0.0 | 2.0 | 0.00 | 0.22 | 0.22 | 67 | 1018.6 |
| 20260507011636 | 52 | 232 | 1.0 | 1.0 | 0.00 | 0.22 | 0.22 | 66 | 1018.4 |
| 20260507011131 | 52 | 288 | 0.0 | 1.0 | 0.00 | 0.22 | 0.22 | 66 | 1018.5 |
| 20260507010626 | 53 | 301 | 2.0 | 3.0 | 0.00 | 0.22 | 0.22 | 65 | 1018.6 |
| 20260507010123 | 53 | 300 | 3.0 | 6.0 | 0.00 | 0.22 | 0.22 | 65 | 1018.4 |
| 20260507005620 | 53 | 240 | 1.0 | 2.0 | 0.00 | 0.22 | 0.22 | 65 | 1018.7 |
| 20260507005116 | 53 | 300 | 1.0 | 3.0 | 0.00 | 0.22 | 0.22 | 64 | 1018.7 |
| 20260507004613 | 53 | 247 | 1.0 | 2.0 | 0.00 | 0.22 | 0.22 | 64 | 1018.4 |
| 20260507004110 | 53 | 295 | 2.0 | 3.0 | 0.00 | 0.22 | 0.22 | 63 | 1018.6 |
| 20260507003606 | 53 | 145 | 0.0 | 0.0 | 0.00 | 0.22 | 0.22 | 62 | 1018.4 |
| 20260507003101 | 53 | 171 | 0.0 | 1.0 | 0.00 | 0.22 | 0.22 | 63 | 1018.4 |
| 20260507002558 | 53 | 205 | 0.0 | 1.0 | 0.00 | 0.22 | 0.22 | 62 | 1018.3 |
| 20260507002054 | 53 | 298 | 0.0 | 2.0 | 0.00 | 0.22 | 0.22 | 61 | 1018.4 |
| 20260507001551 | 53 | 301 | 3.0 | 5.0 | 0.00 | 0.22 | 0.22 | 60 | 1018.2 |
| 20260507001048 | 54 | 195 | 0.0 | 1.0 | 0.00 | 0.22 | 0.22 | 61 | 1018.3 |
| 20260507000544 | 54 | 253 | 2.0 | 3.0 | 0.00 | 0.22 | 0.22 | 61 | 1018.2 |
| 20260507000040 | 54 | 294 | 1.0 | 1.0 | 0.00 | 0.22 | 0.22 | 60 | 1018.3 |
| 20260506235538 | 54 | 306 | 5.0 | 7.0 | 0.00 | 0.22 | 0.22 | 59 | 1018.1 |
| 20260506235033 | 54 | 316 | 2.0 | 2.0 | 0.00 | 0.22 | 0.22 | 60 | 1018.1 |
| 20260506234531 | 55 | 322 | 0.0 | 3.0 | 0.00 | 0.22 | 0.22 | 60 | 1018.4 |
| 20260506234028 | 55 | 298 | 3.0 | 5.0 | 0.00 | 0.22 | 0.22 | 59 | 1018.5 |
| 20260506233525 | 55 | 298 | 4.0 | 5.0 | 0.00 | 0.22 | 0.22 | 58 | 1018.4 |
| 20260506233022 | 55 | 306 | 3.0 | 5.0 | 0.00 | 0.22 | 0.22 | 56 | 1018.2 |
| 20260506232518 | 56 | 108 | 1.0 | 3.0 | 0.00 | 0.22 | 0.22 | 56 | 1018.3 |
| 20260506232013 | 56 | 81 | 2.0 | 3.0 | 0.00 | 0.22 | 0.22 | 57 | 1018.4 |
| 20260506231511 | 55 | 159 | 0.0 | 1.0 | 0.00 | 0.22 | 0.22 | 60 | 1018.4 |
| 20260506231009 | 54 | 258 | 2.0 | 3.0 | 0.00 | 0.22 | 0.22 | 59 | 1018.2 |
| 20260506230504 | 55 | 211 | 3.0 | 3.0 | 0.00 | 0.22 | 0.22 | 58 | 1018.3 |
| 20260506230003 | 55 | 155 | 0.0 | 1.0 | 0.00 | 0.22 | 0.22 | 58 | 1018.4 |
| 20260506225459 | 54 | 124 | 1.0 | 2.0 | 0.00 | 0.22 | 0.22 | 58 | 1018.3 |
| 20260506224955 | 54 | 305 | 2.0 | 5.0 | 0.00 | 0.22 | 0.22 | 58 | 1018.4 |
| 20260506224452 | 54 | 241 | 0.0 | 2.0 | 0.00 | 0.22 | 0.22 | 59 | 1018.3 |
| 20260506223949 | 54 | 188 | 1.0 | 2.0 | 0.00 | 0.22 | 0.22 | 58 | 1018.2 |
| 20260506223445 | 55 | 191 | 1.0 | 1.0 | 0.00 | 0.22 | 0.22 | 59 | 1018.3 |
| 20260506222942 | 54 | 293 | 2.0 | 3.0 | 0.00 | 0.22 | 0.22 | 57 | 1018.4 |
| 20260506222439 | 55 | 288 | 3.0 | 5.0 | 0.00 | 0.22 | 0.22 | 56 | 1018.3 |
| 20260506221935 | 55 | 306 | 3.0 | 6.0 | 0.00 | 0.22 | 0.22 | 56 | 1018.2 |
| 20260506221432 | 57 | 292 | 2.0 | 3.0 | 0.00 | 0.22 | 0.22 | 55 | 1018.2 |
| 20260506220930 | 57 | 270 | 3.0 | 3.0 | 0.00 | 0.22 | 0.22 | 55 | 1018.4 |
| 20260506220425 | 56 | 287 | 4.0 | 5.0 | 0.00 | 0.22 | 0.22 | 56 | 1018.3 |
| 20260506215922 | 56 | 128 | 1.0 | 9.0 | 0.00 | 0.22 | 0.22 | 55 | 1018.2 |
| 20260506215418 | 57 | 217 | 2.0 | 5.0 | 0.00 | 0.22 | 0.22 | 54 | 1018.3 |
| 20260506214914 | 57 | 211 | 2.0 | 3.0 | 0.00 | 0.22 | 0.22 | 54 | 1018.5 |
| 20260506214411 | 54 | 227 | 2.0 | 5.0 | 0.00 | 0.22 | 0.22 | 57 | 1018.5 |
| 20260506213909 | 55 | 291 | 3.0 | 6.0 | 0.00 | 0.22 | 0.22 | 56 | 1018.7 |
| 20260506213406 | 57 | 256 | 4.0 | 6.0 | 0.00 | 0.22 | 0.22 | 54 | 1018.5 |
| 20260506212904 | 56 | 176 | 1.0 | 3.0 | 0.00 | 0.22 | 0.22 | 55 | 1018.7 |
| 20260506212359 | 57 | 310 | 3.0 | 5.0 | 0.00 | 0.22 | 0.22 | 53 | 1018.6 |
| 20260506211854 | 57 | 142 | 2.0 | 3.0 | 0.00 | 0.22 | 0.22 | 57 | 1018.9 |
| 20260506211350 | 56 | 271 | 4.0 | 6.0 | 0.00 | 0.22 | 0.22 | 57 | 1018.9 |
| 20260506210848 | 56 | 94 | 1.0 | 3.0 | 0.00 | 0.22 | 0.22 | 58 | 1018.9 |
| 20260506210344 | 57 | 208 | 2.0 | 3.0 | 0.00 | 0.22 | 0.22 | 57 | 1018.9 |
| 20260506205842 | 56 | 214 | 1.0 | 3.0 | 0.00 | 0.22 | 0.22 | 62 | 1018.9 |
| 20260506205338 | 58 | 307 | 3.0 | 7.0 | 0.00 | 0.22 | 0.22 | 58 | 1019.2 |
| 20260506204834 | 55 | 143 | 1.0 | 2.0 | 0.00 | 0.22 | 0.22 | 60 | 1019.0 |
| 20260506204332 | 55 | 79 | 1.0 | 3.0 | 0.00 | 0.22 | 0.22 | 62 | 1019.2 |
| 20260506203829 | 55 | 120 | 1.0 | 2.0 | 0.00 | 0.22 | 0.22 | 62 | 1019.1 |
| 20260506203326 | 57 | 153 | 3.0 | 3.0 | 0.00 | 0.22 | 0.22 | 60 | 1019.3 |
| 20260506202823 | 56 | 94 | 3.0 | 3.0 | 0.00 | 0.22 | 0.22 | 64 | 1019.4 |
| 20260506202320 | 55 | 261 | 1.0 | 5.0 | 0.00 | 0.22 | 0.22 | 61 | 1019.4 |
| 20260506201816 | 55 | 185 | 2.0 | 3.0 | 0.00 | 0.22 | 0.22 | 64 | 1019.4 |
| 20260506201315 | 54 | 270 | 3.0 | 5.0 | 0.00 | 0.22 | 0.22 | 67 | 1019.5 |
| 20260506200811 | 55 | 306 | 5.0 | 6.0 | 0.00 | 0.22 | 0.22 | 65 | 1019.6 |
| 20260506200307 | 54 | 145 | 0.0 | 3.0 | 0.00 | 0.22 | 0.22 | 64 | 1019.7 |
| 20260506195803 | 53 | 255 | 2.0 | 3.0 | 0.00 | 0.22 | 0.22 | 68 | 1019.7 |
| 20260506195300 | 53 | 47 | 3.0 | 6.0 | 0.00 | 0.22 | 0.22 | 66 | 1019.7 |
| 20260506194758 | 52 | 307 | 2.0 | 6.0 | 0.00 | 0.22 | 0.22 | 69 | 1019.5 |
| 20260506194254 | 53 | 163 | 2.0 | 3.0 | 0.00 | 0.22 | 0.22 | 70 | 1019.7 |
| 20260506193752 | 51 | 68 | 2.0 | 5.0 | 0.00 | 0.22 | 0.22 | 71 | 1019.6 |
| 20260506193248 | 53 | 250 | 1.0 | 6.0 | 0.00 | 0.22 | 0.22 | 70 | 1019.9 |
| 20260506192744 | 53 | 170 | 0.0 | 3.0 | 0.00 | 0.22 | 0.22 | 69 | 1019.7 |
| 20260506192241 | 53 | 144 | 0.0 | 1.0 | 0.00 | 0.22 | 0.22 | 67 | 1019.8 |
| 20260506191738 | 53 | 135 | 0.0 | 1.0 | 0.00 | 0.22 | 0.22 | 68 | 1019.8 |
| 20260506191235 | 52 | 160 | 1.0 | 3.0 | 0.00 | 0.22 | 0.22 | 66 | 1019.8 |
| 20260506190732 | 53 | 352 | 0.0 | 5.0 | 0.00 | 0.22 | 0.22 | 68 | 1019.8 |
| 20260506190228 | 52 | 350 | 1.0 | 1.0 | 0.00 | 0.22 | 0.22 | 70 | 1019.9 |
| 20260506185725 | 51 | 271 | 0.0 | 2.0 | 0.00 | 0.22 | 0.22 | 69 | 1019.8 |
| 20260506185221 | 52 | 274 | 2.0 | 2.0 | 0.00 | 0.22 | 0.22 | 70 | 1020.1 |
| 20260506184719 | 52 | 277 | 3.0 | 3.0 | 0.00 | 0.22 | 0.22 | 73 | 1020.2 |
| 20260506184216 | 51 | 293 | 2.0 | 3.0 | 0.00 | 0.22 | 0.22 | 73 | 1019.9 |
| 20260506183713 | 52 | 110 | 2.0 | 3.0 | 0.00 | 0.22 | 0.22 | 70 | 1020.2 |
| 20260506183209 | 51 | 134 | 1.0 | 1.0 | 0.00 | 0.22 | 0.22 | 72 | 1019.9 |
| 20260506182706 | 52 | 58 | 2.0 | 5.0 | 0.00 | 0.22 | 0.22 | 71 | 1020.2 |
| 20260506182203 | 51 | 120 | 1.0 | 2.0 | 0.00 | 0.22 | 0.22 | 74 | 1020.0 |
| 20260506181701 | 51 | 70 | 2.0 | 3.0 | 0.00 | 0.22 | 0.22 | 75 | 1020.1 |
| 20260506181158 | 51 | 42 | 5.0 | 7.0 | 0.00 | 0.22 | 0.22 | 76 | 1019.9 |
| 20260506180655 | 50 | 104 | 0.0 | 2.0 | 0.00 | 0.22 | 0.22 | 78 | 1020.3 |
| 20260506180151 | 50 | 94 | 3.0 | 3.0 | 0.00 | 0.22 | 0.22 | 78 | 1020.1 |
| 20260506175648 | 50 | 131 | 0.0 | 3.0 | 0.00 | 0.22 | 0.22 | 80 | 1020.1 |
| 20260506175145 | 50 | 89 | 2.0 | 5.0 | 0.00 | 0.22 | 0.22 | 78 | 1020.2 |
| 20260506174638 | 50 | 72 | 2.0 | 3.0 | 0.00 | 0.22 | 0.22 | 78 | 1020.1 |
| 20260506174134 | 51 | 98 | 3.0 | 3.0 | 0.00 | 0.22 | 0.22 | 79 | 1020.2 |
| 20260506173631 | 50 | 64 | 3.0 | 5.0 | 0.00 | 0.22 | 0.22 | 80 | 1020.1 |
| 20260506173129 | 50 | 67 | 1.0 | 3.0 | 0.00 | 0.22 | 0.22 | 81 | 1020.1 |
| 20260506172626 | 50 | 73 | 3.0 | 6.0 | 0.00 | 0.22 | 0.22 | 83 | 1020.3 |
| 20260506172121 | 49 | 99 | 0.0 | 2.0 | 0.00 | 0.22 | 0.22 | 84 | 1020.2 |
| 20260506171620 | 48 | 71 | 2.0 | 2.0 | 0.00 | 0.22 | 0.22 | 84 | 1020.2 |
| 20260506171117 | 48 | 107 | 1.0 | 5.0 | 0.00 | 0.22 | 0.22 | 84 | 1020.3 |
| 20260506170615 | 47 | 99 | 3.0 | 5.0 | 0.00 | 0.22 | 0.22 | 84 | 1020.3 |
| 20260506170111 | 47 | 102 | 1.0 | 3.0 | 0.00 | 0.22 | 0.22 | 83 | 1020.6 |
| 20260506165610 | 48 | 89 | 1.0 | 3.0 | 0.00 | 0.22 | 0.22 | 84 | 1020.8 |
| 20260506165106 | 47 | 107 | 2.0 | 5.0 | 0.00 | 0.22 | 0.22 | 84 | 1020.7 |
| 20260506164603 | 47 | 99 | 1.0 | 5.0 | 0.00 | 0.22 | 0.22 | 84 | 1020.6 |
| 20260506164100 | 47 | 88 | 3.0 | 3.0 | 0.00 | 0.22 | 0.22 | 85 | 1020.3 |
| 20260506163555 | 47 | 110 | 0.0 | 0.0 | 0.00 | 0.22 | 0.22 | 86 | 1020.4 |
| 20260506163051 | 47 | 107 | 0.0 | 8.0 | 0.00 | 0.22 | 0.22 | 88 | 1020.6 |
| 20260506162547 | 46 | 99 | 0.0 | 1.0 | 0.00 | 0.22 | 0.22 | 91 | 1020.2 |
| 20260506162039 | 46 | 100 | 4.0 | 7.0 | 0.00 | 0.22 | 0.22 | 93 | 1020.2 |
| 20260506161536 | 46 | 93 | 6.0 | 8.0 | 0.00 | 0.22 | 0.22 | 95 | 1020.2 |
| 20260506161028 | 45 | 84 | 4.0 | 7.0 | 0.00 | 0.22 | 0.22 | 97 | 1020.0 |
| 20260506160526 | 44 | 80 | 5.0 | 10.0 | 0.00 | 0.22 | 0.22 | 98 | 1020.0 |
| 20260506160023 | 44 | 107 | 3.0 | 6.0 | 0.00 | 0.22 | 0.22 | 98 | 1020.1 |
| 20260506155521 | 44 | 91 | 2.0 | 3.0 | 0.00 | 0.22 | 0.22 | 98 | 1020.1 |
| 20260506153658 | 43 | 99 | 0.0 | 0.0 | 0.00 | 0.22 | 0.22 | 99 | 1020.1 |
| 20260506153155 | 44 | 100 | 0.0 | 2.0 | 0.00 | 0.22 | 0.22 | 99 | 1020.2 |
| 20260506152652 | 43 | 105 | 0.0 | 2.0 | 0.00 | 0.22 | 0.22 | 99 | 1020.1 |
| 20260506152149 | 42 | 55 | 1.0 | 3.0 | 0.00 | 0.22 | 0.22 | 99 | 1020.1 |
| 20260506151648 | 42 | 47 | 1.0 | 3.0 | 0.00 | 0.22 | 0.22 | 99 | 1020.0 |
| 20260506151144 | 43 | 81 | 0.0 | 3.0 | 0.00 | 0.22 | 0.22 | 99 | 1020.0 |
| 20260506150641 | 43 | 76 | 0.0 | 0.0 | 0.00 | 0.22 | 0.22 | 99 | 1020.1 |
| 20260506150138 | 42 | 93 | 0.0 | 0.0 | 0.07 | 0.22 | 0.22 | 99 | 1020.0 |
| 20260506145635 | 42 | 68 | 0.0 | 0.0 | 0.07 | 0.22 | 0.22 | 99 | 1020.1 |
| 20260506145132 | 43 | 88 | 0.0 | 3.0 | 0.00 | 0.21 | 0.21 | 99 | 1020.2 |
| 20260506144630 | 42 | 68 | 0.0 | 0.0 | 0.00 | 0.21 | 0.21 | 99 | 1020.0 |
| 20260506144126 | 43 | 106 | 0.0 | 0.0 | 0.00 | 0.21 | 0.21 | 99 | 1019.9 |
| 20260506143624 | 42 | 87 | 0.0 | 2.0 | 0.00 | 0.21 | 0.21 | 99 | 1019.8 |
| 20260506143122 | 42 | 27 | 1.0 | 3.0 | 0.00 | 0.21 | 0.21 | 99 | 1020.1 |
| 20260506142620 | 42 | 36 | 1.0 | 3.0 | 0.00 | 0.21 | 0.21 | 99 | 1020.0 |
| 20260506142118 | 42 | 56 | 1.0 | 3.0 | 0.00 | 0.21 | 0.21 | 99 | 1019.9 |
| 20260506141615 | 42 | 32 | 3.0 | 6.0 | 0.00 | 0.21 | 0.21 | 99 | 1019.9 |
| 20260506141113 | 42 | 92 | 0.0 | 0.0 | 0.00 | 0.21 | 0.21 | 99 | 1019.9 |
| 20260506140610 | 42 | 89 | 0.0 | 0.0 | 0.00 | 0.21 | 0.21 | 99 | 1019.8 |
| 20260506140107 | 42 | 78 | 0.0 | 0.0 | 0.00 | 0.21 | 0.21 | 99 | 1019.7 |
| 20260506135604 | 42 | 76 | 0.0 | 0.0 | 0.05 | 0.21 | 0.21 | 99 | 1019.6 |
| 20260506135100 | 43 | 81 | 0.0 | 0.0 | 0.05 | 0.21 | 0.21 | 99 | 1019.7 |
| 20260506134557 | 42 | 74 | 0.0 | 1.0 | 0.00 | 0.20 | 0.20 | 99 | 1019.7 |
| 20260506134053 | 42 | 39 | 0.0 | 1.0 | 0.00 | 0.20 | 0.20 | 99 | 1019.5 |
| 20260506133550 | 42 | 74 | 0.0 | 0.0 | 0.00 | 0.20 | 0.20 | 99 | 1019.6 |
| 20260506133047 | 43 | 75 | 0.0 | 0.0 | 0.00 | 0.20 | 0.20 | 99 | 1019.5 |
| 20260506132544 | 43 | 70 | 0.0 | 0.0 | 0.07 | 0.20 | 0.20 | 99 | 1019.2 |
| 20260506132042 | 42 | 65 | 0.0 | 0.0 | 0.07 | 0.20 | 0.20 | 99 | 1019.1 |
| 20260506131538 | 42 | 63 | 0.0 | 0.0 | 0.00 | 0.19 | 0.19 | 99 | 1019.1 |
| 20260506131035 | 42 | 63 | 0.0 | 0.0 | 0.00 | 0.19 | 0.19 | 99 | 1019.0 |
| 20260506130532 | 42 | 62 | 0.0 | 0.0 | 0.00 | 0.19 | 0.19 | 99 | 1018.9 |
| 20260506130029 | 42 | 62 | 0.0 | 0.0 | 0.00 | 0.19 | 0.19 | 99 | 1018.7 |
| 20260506125528 | 42 | 61 | 0.0 | 0.0 | 0.00 | 0.19 | 0.19 | 99 | 1018.7 |
| 20260506125025 | 42 | 60 | 0.0 | 0.0 | 0.00 | 0.19 | 0.19 | 99 | 1018.7 |
| 20260506124523 | 42 | 65 | 0.0 | 0.0 | 0.00 | 0.19 | 0.19 | 99 | 1018.9 |
| 20260506124020 | 42 | 61 | 0.0 | 0.0 | 0.00 | 0.19 | 0.19 | 99 | 1018.6 |
| 20260506123518 | 42 | 79 | 0.0 | 0.0 | 0.00 | 0.19 | 0.19 | 99 | 1018.2 |
| 20260506123016 | 42 | 75 | 0.0 | 0.0 | 0.00 | 0.19 | 0.19 | 99 | 1018.2 |
| 20260506122512 | 42 | 73 | 0.0 | 0.0 | 0.00 | 0.19 | 0.19 | 99 | 1018.2 |
| 20260506122011 | 43 | 79 | 0.0 | 0.0 | 0.00 | 0.19 | 0.19 | 99 | 1018.2 |
| 20260506121508 | 43 | 78 | 0.0 | 0.0 | 0.00 | 0.19 | 0.19 | 99 | 1018.0 |
| 20260506121004 | 43 | 77 | 0.0 | 0.0 | 0.00 | 0.19 | 0.19 | 99 | 1018.0 |
| 20260506120502 | 43 | 77 | 0.0 | 0.0 | 0.00 | 0.19 | 0.19 | 99 | 1018.0 |
| 20260506115959 | 43 | 77 | 0.0 | 0.0 | 0.00 | 0.19 | 0.19 | 99 | 1018.0 |
| 20260506115457 | 43 | 77 | 0.0 | 0.0 | 0.00 | 0.19 | 0.19 | 99 | 1018.1 |
| 20260506114955 | 43 | 70 | 0.0 | 0.0 | 0.00 | 0.19 | 0.19 | 99 | 1017.8 |